SCP
0 0 0 0 0 0 0 0 0 0 0 0 0 0 0 0 0 0 0 0 0 0 0 0 0 0 0 0 0 0 0 0 0 0 0 0 0 0 0 0 0 0 0 0
0 0 0 0 0 0 0 0 0 0 0 0 0 0 0 0 0 0 0 0 0 0 0 0 0 0 0 0 0 0 0 0 0 0 0 0 0 0 0 0 0 0 0 0
0 0 0 0 0 0 0 0 0 0 0 0 0 0 0 0 0 0 0 0 0 0 0 0 0 0 0 0 0 0 0 0 0 0 0 0 0 0 0 0 0 0 0 0
0 0 0 0 0 0 0 0 0 0 0 0 0 0 0 0 0 0 0 0 0 0 0 0 0 0 0 0 0 0 0 0 0 0 0 0 0 0 0 0 0 0 0 0
0 0 0 0 0 0 0 0 0 0 0 0 0 0 0 0 0 0 0 0 0 0 0 0 0 0 0 0 0 0 0 0 0 0 0 0 0 0 0 0 0 0 0 0
0 0 0 0 0 0 0 0 0 0 0 0 0 0 0 0 0 0 0 0 0 0 0 0 0 0 0 0 0 0 0 0 0 0 0 0 0 0 0 0 0 0 0 0
0 0 0 0 0 0 0 0 0 0 0 0 0 0 0 0 0 0 0 0 0 0 0 0 0 0 0 0 0 0 0 0 0 0 0 0 0 0 0 0 0 0 0 0
0 0 0 0 0 0 0 0 0 0 0 0 0 0 0 0 0 0 0 0 0 0 0 0 0 0 0 0 0 0 0 0 0 0 0 0 0 0 0 0 0 0 0 0
0 0 0 0 0 0 0 0 0 0 0 0 0 0 0 0 0 0 0 0 0 0 0 0 0 0 0 0 0 0 0 0 0 0 0 0 0 0 0 0 0 0 0 0
0 0 0 0 0 0 0 0 0 0 0 0 0 0 0 0 0 0 0 0 0 0 0 0 0 0 0 0 0 0 0 0 0 0 0 0 0 0 0 0 0 0 0 0
0 0 0 0 0 0 0 0 0 0 0 0 0 0 0 0 0 0 0 0 0 0 0 0 0 0 0 0 0 0 0 0 0 0 0 0 0 0 0 0 0 0 0 0
0 0 0 0 0 0 0 0 0 0 0 0 0 0 0 0 0 0 0 0 0 0 0 0 0 0 0 0 0 0 0 0 0 0 0 0 0 0 0 0 0 0 0 0
0 0 0 0 0 0 0 0 0 0 0 0 0 0 0 0 0 0 0 0 0 0 0 0 0 0 0 0 0 0 0 0 0 0 0 0 0 0 0 0 0 0 0 0
0 0 0 0 0 0 0 0 0 0 0 0 0 0 0 0 0 0 0 0 0 0 0 0 0 0 0 0 0 0 0 0 0 0 0 0 0 0 0 0 0 0 0 0
0 0 0 0 0 0 0 0 0 0 0 0 0 0 0 0 0 0 0 0 0 0 0 0 0 0 0 0 0 0 0 0 0 0 0 0 0 0 0 0 0 0 0 0
0 0 0 0 0 0 0 0 0 0 0 0 0 0 0 0 0 0 0 0 0 0 0 0 0 0 0 0 0 0 0 0 0 0 0 0 0 0 0 0 0 0 0 0
0 0 0 0 0 0 0 0 0 0 0 0 0 0 0 0 0 0 0 0 0 0 0 0 0 0 0 0 0 0 0 0 0 0 0 0 0 0 0 0 0 0 0 0
0 0 0 0 0 0 0 0 0 0 0 0 0 0 0 0 0 0 0 0 0 0 0 0 0 0 0 0 0 0 0 0 0 0 0 0 0 0 0 0 0 0 0 0
0 0 0 0 0 0 0 0 0 0 0 0 0 0 0 0 0 0 0 0 0 0 0 0 0 0 0 0 0 0 0 0 0 0 0 0 0 0 0 0 0 0 0 0
0 0 0 0 0 0 0 0 0 0 0 0 0 0 0 0 0 0 0 0 0 0 0 0 0 0 0 0 0 0 0 0 0 0 0 0 0 0 0 0 0 0 0 0
0 0 0 0 0 0 0 0 0 0 0 0 0 0 0 0 0 0 0 0 0 0 0 0 0 0 0 0 0 0 0 0 0 0 0 0 0 0 0 0 0 0 0 0
0 0 0 0 0 0 0 0 0 0 0 0 0 0 0 0 0 0 0 0 0 0 0 0 0 0 0 0 0 0 0 0 0 0 0 0 0 0 0 0 0 0 0 0
0 0 0 0 0 0 0 0 0 0 0 0 0 0 0 0 0 0 0 0 0 0 0 0 0 0 0 0 0 0 0 0 0 0 0 0 0 0 0 0 0 0 0 0
0 0 0 0 0 0 0 0 0 0 0 0 0 0 0 0 0 0 0 0 0 0 0 0 0 0 0 0 0 0 0 0 0 0 0 0 0 0 0 0 0 0 0 0
0 0 0 0 0 0 0 0 0 0 0 0 0 0 0 0 0 0 0 0 0 0 0 0 0 0 0 0 0 0 0 0 0 0 0 0 0 0 0 0 0 0 0 0
0 0 0 0 0 0 0 0 0 0 0 0 0 0 0 0 0 0 0 0 0 0 0 0 0 0 0 0 0 0 0 0 0 0 0 0 0 0 0 0 0 0 0 0
0 0 0 0 0 0 0 0 0 0 0 0 0 0 0 0 0 0 0 0 0 0 0 0 0 0 0 0 0 0 0 0 0 0 0 0 0 0 0 0 0 0 0 0
Wind_Speed
6 5 4 6 9 9 10 10 9 10 12 12 8 6 5 4 3 3 3 2 3 3 2 2 2 2 2 2 2 3 4 4 3 3 3 3 3 3 3 3 3 2 3 3
5 6 6 8 11 12 13 11 11 12 15 10 6 5 5 4 3 4 5 5 4 2 2 2 3 3 3 3 3 4 4 3 3 3 3 4 3 3 4 4 3 3 3 3
5 4 2 10 12 13 10 9 10 14 15 7 5 6 7 6 6 6 6 6 5 4 3 3 2 2 3 3 3 4 4 3 3 3 3 3 3 4 3 3 3 3 3 3
2 1 9 11 4 8 10 12 11 11 10 9 9 8 6 6 6 7 6 5 4 3 3 2 2 2 2 3 3 4 4 3 3 3 3 3 3 3 3 3 3 3 3 3
3 5 9 9 5 7 8 10 9 11 12 9 7 4 5 4 5 6 6 4 3 3 2 2 3 3 4 4 3 3 3 2 2 3 3 3 3 3 3 3 3 3 3 3
4 5 9 10 6 4 4 9 8 8 9 8 3 5 8 4 3 3 2 2 2 2 3 3 3 4 4 3 3 2 2 2 2 2 3 3 3 3 3 3 3 3 4 3
8 8 10 9 4 3 6 9 6 6 7 6 7 8 5 1 1 2 1 2 3 3 3 3 3 4 4 3 2 2 2 2 2 2 3 3 3 3 4 4 4 3 4 3
6 8 12 5 4 7 8 5 3 4 5 5 6 5 3 2 2 1 1 2 3 3 2 2 3 4 4 3 2 3 3 3 2 2 2 3 4 4 4 4 4 3 3 3
9 10 6 3 6 6 4 5 5 4 5 4 4 4 4 3 2 2 2 2 3 3 3 2 2 3 4 2 3 3 4 3 2 2 2 2 4 4 4 3 3 3 3 2
7 10 9 8 6 5 4 5 5 4 4 3 4 5 4 3 3 2 2 3 3 3 3 2 2 2 2 2 3 4 4 4 3 3 2 2 2 3 3 3 3 3 3 2
10 10 8 8 7 6 4 4 4 4 3 4 4 4 4 3 3 2 2 2 3 3 4 3 2 2 2 2 3 4 4 4 3 3 2 2 2 2 2 2 3 4 3 3
11 8 7 8 5 4 4 4 4 4 4 3 3 4 3 3 2 2 2 2 3 3 3 2 2 2 2 2 3 4 4 3 3 3 2 2 2 2 4 4 5 5 4 4
10 8 8 9 5 4 4 5 4 4 4 4 3 2 3 2 2 2 2 3 3 3 3 2 2 2 2 2 3 4 4 3 3 3 3 3 3 3 3 3 5 5 5 5
7 6 8 7 6 4 3 3 2 2 2 2 2 1 1 1 2 2 3 2 3 3 3 3 3 2 2 2 3 3 3 3 3 3 3 3 3 2 3 3 3 2 3 4
6 6 7 6 4 3 1 1 1 2 2 2 1 2 2 3 3 2 2 2 3 3 3 3 3 2 2 3 4 4 3 3 2 2 2 2 2 2 2 3 3 2 2 2
5 5 4 4 5 3 2 2 3 4 3 2 2 2 2 2 2 2 2 3 4 4 3 3 3 3 2 3 4 3 3 3 3 3 3 3 3 3 3 3 3 2 2 1
3 5 4 4 5 4 4 4 4 4 3 3 3 2 2 2 2 2 2 2 2 3 3 3 3 2 3 3 4 3 3 3 4 3 3 3 3 3 3 3 2 2 1 1
5 5 5 5 5 5 5 4 4 4 4 3 2 3 3 4 4 4 3 2 2 1 2 2 3 3 3 3 3 3 3 3 3 3 3 3 3 2 2 2 2 2 1 1
4 4 4 4 4 4 5 4 4 3 2 2 3 4 3 3 3 3 3 4 4 3 3 2 4 4 3 4 4 3 4 4 3 3 3 3 3 2 2 2 2 2 2 1
4 4 4 4 3 3 4 3 2 2 2 2 3 3 3 3 3 4 4 4 4 3 3 3 3 4 3 3 4 3 4 4 4 3 3 3 3 3 2 2 2 2 2 2
5 4 4 4 4 3 3 3 3 3 3 3 4 4 4 3 3 4 4 3 3 2 3 4 3 3 3 4 4 3 4 4 4 4 4 3 3 3 3 3 2 2 2 2
4 4 4 4 3 4 3 2 2 3 2 2 3 3 3 3 3 3 3 3 3 4 3 3 3 4 4 5 3 4 4 4 4 3 3 3 3 3 3 3 3 3 3 3
4 4 4 3 3 3 3 2 2 2 3 3 3 4 4 4 4 4 4 3 3 5 3 3 4 6 6 4 4 4 4 4 4 4 4 4 4 4 4 4 3 3 3 3
3 3 3 2 1 1 3 2 2 2 2 2 3 3 3 2 2 2 2 3 4 5 3 4 6 7 6 3 4 4 4 4 4 3 3 3 3 3 3 3 3 3 3 4
3 3 2 2 2 3 3 2 2 1 1 2 2 2 2 2 3 2 2 3 5 5 3 4 6 6 4 3 4 4 4 4 4 4 4 4 4 4 4 4 4 4 4 4
2 3 3 3 3 2 2 2 2 2 2 2 2 1 1 1 2 2 2 3 4 4 3 3 3 4 3 4 4 4 4 4 4 4 4 4 4 4 4 4 5 4 4 4
2 2 2 2 2 2 2 2 3 3 3 3 3 2 2 2 2 2 2 2 3 3 3 3 3 3 3 3 3 4 3 3 4 4 4 4 4 4 5 5 5 4 4 4
Wind_Direction
251 256 229 242 240 227 223 223 229 245 248 259 263 262 268 270 263 262 254 239 223 217 208 188 169 159 149 141 131 123 118 116 118 112 104 100 94 89 87 84 85 90 93 90
260 252 242 258 249 236 234 230 234 250 258 257 258 258 270 269 253 254 252 245 242 225 200 200 192 175 159 153 141 126 125 126 118 109 103 98 93 92 90 88 86 85 85 91
259 273 269 254 236 225 223 219 215 236 250 253 251 236 234 242 244 243 242 234 227 219 207 199 199 176 165 151 126 121 119 112 107 108 106 102 102 99 99 97 92 85 80 83
230 131 235 245 216 214 227 240 232 238 249 238 239 242 235 223 224 238 243 237 227 209 200 181 139 117 113 106 113 117 114 112 113 114 113 109 108 107 104 100 99 96 88 87
190 228 263 282 247 200 214 248 242 244 254 257 255 270 262 237 227 231 231 221 208 190 179 146 128 121 118 119 122 124 125 130 134 133 131 127 123 117 111 106 100 98 94 88
196 216 239 251 251 223 194 254 249 239 252 257 244 249 259 243 235 235 220 178 155 132 120 124 120 117 117 128 130 138 138 139 129 132 135 134 127 115 108 112 110 103 91 82
217 231 253 256 252 142 191 245 249 233 243 245 231 239 255 253 234 219 179 141 127 122 123 128 122 120 123 124 134 115 97 102 107 119 127 128 115 109 112 111 109 104 97 78
205 222 247 243 164 189 229 252 251 249 246 241 246 252 252 240 213 191 160 133 132 132 127 111 122 131 130 135 111 98 105 107 107 111 123 126 124 118 118 122 120 112 103 87
206 226 245 215 221 238 239 245 253 248 255 240 242 241 235 232 213 197 186 174 145 140 132 109 106 130 141 134 114 118 117 118 117 112 112 129 136 134 131 134 139 135 131 123
244 252 255 258 258 264 255 252 260 252 249 233 241 243 239 227 222 210 189 172 155 148 152 152 113 101 120 125 126 133 134 131 129 126 122 118 128 135 144 151 149 146 150 148
252 264 277 264 249 255 265 269 273 272 249 234 227 239 235 233 235 224 189 165 163 170 169 162 129 113 109 115 126 135 136 134 132 132 137 126 114 126 140 139 157 161 167 160
249 251 250 266 267 261 257 261 261 270 281 267 229 232 232 237 233 209 179 155 154 160 160 153 139 132 123 127 139 145 143 141 140 143 140 133 123 105 107 115 114 119 122 123
251 265 260 268 274 267 257 262 260 257 255 263 259 229 225 233 216 177 163 163 170 172 169 158 151 147 145 143 143 151 155 154 150 148 147 146 143 138 128 103 104 103 103 108
249 265 269 267 268 275 266 268 275 283 278 261 252 218 187 196 177 172 179 174 155 147 156 159 159 169 160 143 139 144 147 147 149 150 149 146 144 140 138 138 133 111 89 94
255 255 257 275 287 297 300 294 284 271 266 265 215 202 189 189 192 191 170 145 136 144 159 162 168 182 165 150 146 149 149 149 146 140 137 135 132 130 131 128 128 124 103 92
284 285 273 268 269 276 283 264 257 259 253 245 233 222 206 182 169 161 159 153 155 173 183 181 187 189 168 154 146 144 144 139 132 133 131 130 131 135 137 136 137 136 137 134
262 271 269 271 273 277 265 258 255 257 251 240 231 206 164 146 151 171 177 170 170 180 186 189 191 173 161 158 155 151 145 138 129 128 138 141 142 147 148 147 150 153 172 192
241 254 252 251 258 267 271 267 257 252 246 238 201 179 182 186 195 196 184 155 140 156 201 193 178 159 155 158 153 145 142 140 142 146 145 143 144 144 144 148 155 158 161 167
274 274 273 267 261 255 255 257 257 253 246 209 194 199 204 206 195 186 170 167 179 201 221 203 177 150 158 167 151 143 143 143 143 144 145 143 141 146 151 159 168 175 172 162
291 286 281 278 274 253 253 257 254 252 240 209 192 190 202 205 186 179 178 197 216 214 186 178 166 161 167 170 154 148 151 154 155 154 154 157 161 164 168 173 179 183 186 190
288 287 285 280 280 274 258 246 234 240 238 210 201 207 210 205 187 178 180 216 234 185 172 169 167 171 169 164 158 155 157 160 162 165 167 170 170 174 181 186 190 195 200 205
275 273 274 277 276 283 280 258 238 234 230 221 213 200 196 204 197 198 213 220 199 175 170 175 177 176 171 164 163 162 164 167 169 169 173 176 179 185 192 196 199 204 207 211
268 265 270 271 267 275 292 276 248 231 228 223 215 208 210 212 201 200 224 211 179 181 177 187 186 179 173 165 167 169 173 177 181 183 185 187 190 194 198 203 206 206 209 213
272 270 271 273 267 270 281 285 276 254 245 242 235 223 212 213 232 237 223 175 179 184 186 191 190 184 172 169 171 176 182 187 189 189 190 193 197 200 204 206 212 215 216 219
270 271 270 264 258 257 260 277 290 271 256 257 253 237 222 218 223 219 189 185 186 182 188 198 195 184 174 177 182 188 193 197 195 192 194 199 203 205 208 210 212 215 217 220
266 264 258 248 247 255 254 245 250 251 244 258 266 247 228 215 199 199 195 192 191 189 189 193 191 185 187 190 194 198 200 200 202 205 205 206 208 209 212 214 217 219 220 222
275 275 278 281 266 245 238 235 241 244 232 233 253 245 219 204 198 198 195 194 192 195 199 199 195 194 196 199 204 208 208 207 207 209 209 210 212 214 217 217 219 220 220 222